Weather reports worldwide

Advertisment
Helgoland, Germany (10015): temperature & dewpoint: 19.08.2019 08:00:00 - 25.08.2019 08:00:00 (CEST)Helgoland, Germany (10015): temperature 5cm: 19.08.2019 08:00:00 - 25.08.2019 08:00:00 (CEST)Helgoland, Germany (10015): reduced air pressure: 19.08.2019 08:00:00 - 25.08.2019 08:00:00 (CEST)Helgoland, Germany (10015): visibility: 19.08.2019 08:00:00 - 25.08.2019 08:00:00 (CEST)Helgoland, Germany (10015): sunshine duration: 19.08.2019 08:00:00 - 25.08.2019 08:00:00 (CEST)Helgoland, Germany (10015): precipitation: 19.08.2019 08:00:00 - 25.08.2019 08:00:00 (CEST)
Date & Time tt [°C] td [°C] tt 5cm [°C] ppp [hPa] vv [km] sd [min] rr [mm]
25.08.2019 08:00:00 - - - - - - -
25.08.2019 07:00:00 18,8 16,2 17,6 1020,7 25 0 0,0
25.08.2019 06:00:00 18,8 16,2 17,4 1020,7 26 0 0,0
25.08.2019 05:00:00 18,9 16,3 17,4 1020,8 25 0 0,0
25.08.2019 04:00:00 19,0 16,2 17,6 1021,1 27 0 0,0
25.08.2019 03:00:00 19,0 16,0 17,7 1021,1 29 0 0,0
25.08.2019 02:00:00 19,2 15,9 17,9 1021,4 29 0 0,0
25.08.2019 01:00:00 19,4 15,8 18,2 1021,7 32 0 0,0
25.08.2019 00:00:00 19,5 16,0 18,3 1021,7 33 0 0,0
24.08.2019 23:00:00 19,9 15,8 18,8 1022,0 30 0 0,0
24.08.2019 22:00:00 20,5 15,4 19,3 1021,9 40 0 0,0
24.08.2019 21:00:00 20,7 17,0 19,7 1021,8 34 1 0,0
24.08.2019 20:00:00 21,4 17,2 21,5 1021,7 36 60 0,0
24.08.2019 19:00:00 22,3 16,1 24,7 1022,0 43 60 0,0
24.08.2019 18:00:00 22,6 16,3 26,3 1022,4 31 60 0,0
24.08.2019 17:00:00 22,3 17,1 27,1 1022,9 38 60 0,0
24.08.2019 16:00:00 21,5 17,1 27,7 1023,3 30 60 0,0
24.08.2019 15:00:00 21,5 16,9 27,9 1023,6 30 60 0,0
24.08.2019 14:00:00 21,5 16,7 27,0 1024,0 32 60 0,0
24.08.2019 13:00:00 20,9 16,6 25,6 1024,3 46 60 0,0
24.08.2019 12:00:00 19,8 16,7 24,0 1024,8 29 60 0,0
24.08.2019 11:00:00 19,4 16,4 22,1 1025,0 29 60 0,0
24.08.2019 10:00:00 19,0 16,0 20,4 1024,9 29 60 0,0
24.08.2019 09:00:00 18,7 16,3 19,5 1024,8 23 60 0,0
24.08.2019 08:00:00 18,4 16,2 17,6 1025,0 23 46 0,0
24.08.2019 07:00:00 18,0 16,3 16,7 1024,9 18 0 0,0
24.08.2019 06:00:00 17,9 16,7 16,7 1025,1 13 0 0,0
24.08.2019 05:00:00 18,0 16,8 16,7 1025,3 17 0 0,0
24.08.2019 04:00:00 18,0 17,0 16,7 1025,4 14 0 0,0
24.08.2019 03:00:00 17,9 16,9 16,7 1025,5 14 0 0,0
24.08.2019 02:00:00 18,0 17,1 17,0 1025,6 9 0 0,0
24.08.2019 01:00:00 18,0 17,2 16,7 1025,7 8 0 0,0
24.08.2019 00:00:00 18,0 17,1 16,8 1025,5 7 0 0,0
23.08.2019 23:00:00 18,0 17,0 16,7 1025,8 12 0 0,0
23.08.2019 22:00:00 18,0 16,8 16,6 1025,9 13 0 0,0
23.08.2019 21:00:00 18,5 16,7 16,4 1026,1 21 4 0,0
23.08.2019 20:00:00 19,4 16,4 20,7 1025,8 29 60 0,0
23.08.2019 19:00:00 19,7 17,0 21,9 1025,9 20 60 0,0
23.08.2019 18:00:00 19,9 16,8 23,4 1026,1 20 60 0,0
23.08.2019 17:00:00 20,4 17,2 24,2 1026,3 24 60 0,0
23.08.2019 16:00:00 20,3 16,9 25,3 1026,2 17 60 0,0
23.08.2019 15:00:00 20,3 17,1 25,6 1026,2 15 60 0,0
23.08.2019 14:00:00 19,8 16,6 25,1 1026,4 15 60 0,0
23.08.2019 13:00:00 19,5 16,0 24,7 1026,3 16 60 0,0
23.08.2019 12:00:00 18,9 15,5 22,5 1026,1 19 60 0,0
23.08.2019 11:00:00 18,5 15,6 21,1 1025,9 17 60 0,0
23.08.2019 10:00:00 18,2 15,1 19,9 1025,6 21 60 0,0
23.08.2019 09:00:00 17,7 14,2 18,3 1025,3 25 45 0,0
23.08.2019 08:00:00 17,6 13,8 17,2 1024,9 31 0 0,0
23.08.2019 07:00:00 17,4 12,8 16,6 1024,6 33 0 0,0
23.08.2019 06:00:00 17,4 13,0 16,0 1024,5 30 0 0,0
23.08.2019 05:00:00 17,5 13,1 16,0 1024,6 34 0 0,0
23.08.2019 04:00:00 17,8 13,1 16,1 1024,6 29 0 0,0
23.08.2019 03:00:00 18,0 14,3 16,4 1024,6 29 0 0,0
23.08.2019 02:00:00 18,3 13,6 16,5 1024,6 36 0 0,0
23.08.2019 01:00:00 18,2 13,6 16,5 1024,8 35 0 0,0
23.08.2019 00:00:00 18,4 13,0 16,7 1024,7 36 0 0,0
22.08.2019 23:00:00 18,5 13,1 17,0 1024,7 42 0 0,0
22.08.2019 22:00:00 18,6 13,8 17,1 1024,6 44 0 0,0
22.08.2019 21:00:00 18,7 13,4 17,3 1024,2 36 4 0,0
22.08.2019 20:00:00 19,2 13,7 19,1 1023,9 45 60 0,0
22.08.2019 19:00:00 19,6 14,5 20,9 1024,0 31 46 0,0
22.08.2019 18:00:00 19,8 15,2 21,0 1024,1 19 60 0,0
22.08.2019 17:00:00 20,5 14,8 24,1 1024,2 18 60 0,0
22.08.2019 16:00:00 20,9 13,8 24,8 1024,1 22 60 0,0
22.08.2019 15:00:00 21,0 14,5 25,6 1024,5 21 60 0,0
22.08.2019 14:00:00 19,6 15,2 25,4 1024,6 22 60 0,0
22.08.2019 13:00:00 19,7 13,3 24,1 1024,7 27 60 0,0
22.08.2019 12:00:00 19,2 12,4 22,7 1024,6 35 60 0,0
22.08.2019 11:00:00 18,7 11,8 21,0 1024,9 41 60 0,0
22.08.2019 10:00:00 18,1 11,1 19,5 1025,0 34 60 0,0
22.08.2019 09:00:00 17,9 11,1 17,7 1025,0 39 60 0,0
22.08.2019 08:00:00 18,0 11,4 17,1 1025,2 34 47 0,0
22.08.2019 07:00:00 17,9 11,7 16,1 1025,4 33 0 0,0
22.08.2019 06:00:00 17,9 13,0 16,4 1025,4 32 0 0,0
22.08.2019 05:00:00 18,0 12,8 16,4 1025,8 33 0 0,0
22.08.2019 04:00:00 18,0 12,0 16,4 1026,1 37 0 0,0
22.08.2019 03:00:00 17,9 13,7 16,4 1026,5 33 0 0,0
22.08.2019 02:00:00 17,6 13,3 16,1 1026,7 41 0 0,0
22.08.2019 01:00:00 17,6 12,6 16,0 1026,9 44 0 0,0
22.08.2019 00:00:00 17,7 12,6 15,7 1027,2 42 0 0,0
21.08.2019 23:00:00 17,6 12,0 15,7 1027,3 46 0 0,0
21.08.2019 22:00:00 17,6 11,2 15,6 1027,4 43 0 0,0
21.08.2019 21:00:00 17,5 10,5 14,6 1027,4 52 6 0,0
21.08.2019 20:00:00 18,3 9,3 18,3 1027,1 49 60 0,0
21.08.2019 19:00:00 18,7 10,2 20,7 1027,3 41 60 0,0
21.08.2019 18:00:00 18,9 11,7 21,8 1027,5 38 60 0,0
21.08.2019 17:00:00 19,1 11,6 22,5 1027,6 39 60 0,0
21.08.2019 16:00:00 19,0 11,3 23,0 1027,6 35 59 0,0
21.08.2019 15:00:00 18,4 11,9 23,4 1027,7 46 35 0,0
21.08.2019 14:00:00 17,2 12,4 18,7 1027,7 42 14 0,0
21.08.2019 13:00:00 18,4 12,0 23,0 1027,7 64 47 0,0
21.08.2019 12:00:00 17,5 11,0 20,5 1027,6 72 57 0,0
21.08.2019 11:00:00 17,6 11,2 20,4 1027,4 58 35 0,0
21.08.2019 10:00:00 16,9 10,9 16,7 1027,1 62 4 0,0
21.08.2019 09:00:00 16,5 11,9 15,7 1026,8 65 6 0,0
21.08.2019 08:00:00 15,5 12,3 14,7 1026,2 46 18 0,1
21.08.2019 07:00:00 15,3 11,5 13,2 1025,8 53 0 0,9
21.08.2019 06:00:00 14,9 11,3 13,4 1025,5 23 0 0,3
21.08.2019 05:00:00 16,4 11,4 15,5 1025,0 39 0 0,0
21.08.2019 04:00:00 16,3 11,6 14,0 1024,7 36 0 1,3
21.08.2019 03:00:00 16,7 11,3 15,2 1024,3 39 0 0,0
21.08.2019 02:00:00 16,7 10,9 15,3 1024,3 46 0 0,0
21.08.2019 01:00:00 16,8 11,6 15,5 1024,1 41 0 0,0
21.08.2019 00:00:00 16,9 11,1 15,4 1023,8 47 0 0,0
20.08.2019 23:00:00 17,1 11,6 16,4 1023,5 40 0 0,0
20.08.2019 22:00:00 17,4 12,2 16,8 1023,4 45 0 0,0
20.08.2019 21:00:00 16,9 10,6 15,9 1023,0 47 4 0,0
20.08.2019 20:00:00 17,7 12,1 17,3 1022,2 42 53 0,0
20.08.2019 19:00:00 18,4 11,6 19,5 1022,1 38 41 0,0
20.08.2019 18:00:00 17,2 12,0 16,4 1021,8 25 16 0,0
20.08.2019 17:00:00 18,4 11,4 21,6 1021,6 42 59 0,0
20.08.2019 16:00:00 18,0 11,7 21,2 1021,4 39 33 0,0
20.08.2019 15:00:00 18,4 11,8 23,3 1021,0 30 57 0,0
20.08.2019 14:00:00 17,2 11,0 19,8 1020,7 35 28 0,0
20.08.2019 13:00:00 18,5 13,3 22,7 1020,3 37 56 0,0
20.08.2019 12:00:00 18,2 13,6 20,9 1020,2 39 60 0,0
20.08.2019 11:00:00 17,3 14,0 19,3 1019,5 36 60 0,0
20.08.2019 10:00:00 17,6 13,7 17,9 1019,0 44 40 0,0
20.08.2019 09:00:00 16,5 12,0 15,3 1018,3 42 26 0,0
20.08.2019 08:00:00 16,4 12,5 15,3 1017,6 25 18 0,0
20.08.2019 07:00:00 16,5 12,0 14,0 1017,1 42 0 4,9
20.08.2019 06:00:00 16,5 14,0 15,7 1016,5 19 0 0,0
20.08.2019 05:00:00 16,3 13,9 15,1 1016,5 24 0 0,0
20.08.2019 04:00:00 16,8 13,4 15,2 1016,5 23 0 0,0
20.08.2019 03:00:00 16,9 12,5 14,7 1016,3 28 0 2,5
20.08.2019 02:00:00 17,0 12,8 15,1 1016,4 34 0 0,0
20.08.2019 01:00:00 15,9 13,6 14,0 1016,4 19 0 0,8
20.08.2019 00:00:00 16,0 11,3 14,5 1016,5 30 0 0,0
19.08.2019 23:00:00 16,5 12,8 15,0 1015,9 28 0 0,4
19.08.2019 22:00:00 17,1 13,8 15,4 1015,8 20 0 0,3
19.08.2019 21:00:00 16,0 11,0 13,4 1015,6 8 5 1,3
19.08.2019 20:00:00 17,8 13,7 17,7 1015,1 26 45 0,0
19.08.2019 19:00:00 17,9 13,4 19,2 1014,7 29 26 0,0
19.08.2019 18:00:00 18,1 12,2 18,5 1014,4 23 42 0,0
19.08.2019 17:00:00 18,9 12,2 21,4 1014,0 28 58 0,0
19.08.2019 16:00:00 19,0 12,2 21,9 1013,7 24 56 0,0
19.08.2019 15:00:00 18,8 12,2 22,0 1013,2 22 59 0,0
19.08.2019 14:00:00 18,7 12,1 21,6 1012,6 21 60 0,0
19.08.2019 13:00:00 18,7 12,7 21,4 1011,9 20 24 0,0
19.08.2019 12:00:00 18,2 13,8 20,9 1011,1 20 51 0,0
19.08.2019 11:00:00 17,2 13,7 18,7 1010,6 28 33 0,0
19.08.2019 10:00:00 17,0 13,9 18,6 1010,2 21 15 0,0
19.08.2019 09:00:00 16,6 13,9 16,4 1009,8 25 5 0,1
19.08.2019 08:00:00 16,5 14,4 16,2 1009,2 19 2 0,0

tt = temperature
td = dewpoint
tt 5cm = temperature 5cm
ppp = reduced air pressure
vv = visibility
sd = sunshine duration
rr = precipitation

Next stations